Zurück zum Katalog

STARLINK-35811

AktivKommunikationVLEO
NORAD 66596·PAYLOAD·🇺🇸 United States

Gestartet Nov 22, 2025 von Cape Canaveral Space Force Station

Loading…

Nächste Überflüge (nächste 24 Stunden)

TLE

AktuellSource: CelesTrak SupGP

Epoche: Sep 14, 2026, 22:28 UTC

1 66596C 25270J   26257.93659722  .00060658  00000+0  21975-2 0  2570
2 66596  43.0041  67.7511 0001603 275.8626 129.0742 15.27541312    16

Verfolge STARLINK-35811 in Echtzeit mit AllMySat

Download on the App Store